Location: Sihaung
(22.8641°N, 94.0549°E)
Time: 11:39:43
(UTC+00:00)

Sakura Rocket - Pass Details

Date: 03 March 2021
Orbit: 476 x 1742 km, 28.7° (Epoch: 12 April)

Event Time Altitude Azimuth Distance (km) Brightness Sun altitude
Exits shadow 23:40:48 - 291° (WNW) 1,989 5.0 -5.9°
Reaches altitude 10° 23:41:38 10° 296° (WNW) 1,669 4.7 -5.7°
Maximum altitude 23:44:59 32° 2° (N) 826 3.7 -4.9°
Drops below altitude 10° 23:48:19 10° 67° (ENE) 1,662 6.5 -4.2°
Sets 23:50:45 0° 78° (ENE) 2,615 8.0 -3.6°
